Time,TemperatureF,DewpointF,PressureIn,WindDirection,WindDirectionDegrees,WindSpeedMPH,WindSpeedGustMPH,Humidity,HourlyPrecipIn,Conditions,Clouds,dailyrainin,SoftwareType,DateUTC
2013-02-05 00:01:00,49.0,46.0,30.05,SSW,207,0.0,-999.0,88,-99.99,,,-99.99,,2013-02-05 08:01:00,
2013-02-05 00:11:00,49.0,46.0,30.05,SSW,207,0.0,-999.0,88,-99.99,,,-99.99,,2013-02-05 08:11:00,
2013-02-05 00:21:00,49.0,46.0,30.05,SSW,207,0.0,-999.0,88,-99.99,,,-99.99,,2013-02-05 08:21:00,
2013-02-05 00:31:00,49.0,45.0,30.04,SSW,208,0.0,-999.0,87,-99.99,,,-99.99,,2013-02-05 08:31:00,
2013-02-05 00:41:00,49.0,45.0,30.04,SSW,208,0.0,-999.0,87,-99.99,,,-99.99,,2013-02-05 08:41:00,
2013-02-05 00:52:00,48.0,45.0,30.05,SSW,208,0.0,-999.0,88,-99.99,,,-99.99,,2013-02-05 08:52:00,
2013-02-05 01:02:00,48.0,45.0,30.04,SSW,208,0.0,-999.0,89,-99.99,,,-99.99,,2013-02-05 09:02:00,
2013-02-05 01:11:00,47.0,44.0,30.04,SSW,208,0.0,-999.0,89,-99.99,,,-99.99,,2013-02-05 09:11:00,
2013-02-05 01:21:00,47.0,44.0,30.04,SSW,208,0.0,-999.0,89,-99.99,,,-99.99,,2013-02-05 09:21:00,
2013-02-05 01:31:00,47.0,44.0,30.04,SSW,208,0.0,-999.0,90,-99.99,,,-99.99,,2013-02-05 09:31:00,
2013-02-05 01:41:00,47.0,44.0,30.04,SSW,208,0.0,-999.0,90,-99.99,,,-99.99,,2013-02-05 09:41:00,
2013-02-05 01:52:00,47.0,45.0,30.03,SSW,207,0.0,-999.0,91,-99.99,,,-99.99,,2013-02-05 09:52:00,
2013-02-05 02:01:00,47.0,45.0,30.03,SSW,208,0.0,-999.0,92,-99.99,,,-99.99,,2013-02-05 10:01:00,
2013-02-05 02:11:00,47.0,45.0,30.03,SSW,207,0.0,-999.0,92,-99.99,,,-99.99,,2013-02-05 10:11:00,
2013-02-05 02:21:00,47.0,45.0,30.03,SSW,207,0.0,-999.0,92,-99.99,,,-99.99,,2013-02-05 10:21:00,
2013-02-05 02:31:00,46.0,44.0,30.02,SSW,208,0.0,-999.0,92,-99.99,,,-99.99,,2013-02-05 10:31:00,
2013-02-05 02:42:00,46.0,44.0,30.02,SSW,208,0.0,-999.0,92,-99.99,,,-99.99,,2013-02-05 10:42:00,
2013-02-05 02:52:00,46.0,44.0,30.02,SSW,207,0.0,-999.0,92,-99.99,,,-99.99,,2013-02-05 10:52:00,
2013-02-05 03:01:00,45.0,43.0,30.02,SSW,207,0.0,-999.0,93,-99.99,,,-99.99,,2013-02-05 11:01:00,
2013-02-05 03:11:00,45.0,43.0,30.02,SSW,207,0.0,-999.0,93,-99.99,,,-99.99,,2013-02-05 11:11:00,
2013-02-05 03:21:00,46.0,44.0,30.01,SSW,207,0.0,-999.0,93,-99.99,,,-99.99,,2013-02-05 11:21:00,
2013-02-05 03:31:00,45.0,43.0,30.01,SSW,207,0.0,-999.0,93,-99.99,,,-99.99,,2013-02-05 11:31:00,
2013-02-05 03:41:00,45.0,43.0,30.01,SSW,207,0.0,-999.0,93,-99.99,,,-99.99,,2013-02-05 11:41:00,
2013-02-05 03:52:00,45.0,43.0,30.01,SSW,207,0.0,-999.0,93,-99.99,,,-99.99,,2013-02-05 11:52:00,
2013-02-05 04:01:00,44.0,42.0,30.01,SSW,207,0.0,-999.0,93,-99.99,,,-99.99,,2013-02-05 12:01:00,
2013-02-05 04:12:00,44.0,42.0,30.01,SSW,207,0.0,-999.0,93,-99.99,,,-99.99,,2013-02-05 12:12:00,
2013-02-05 04:21:00,44.0,42.0,30.01,SW,223,0.0,-999.0,93,-99.99,,,-99.99,,2013-02-05 12:21:00,
2013-02-05 04:31:00,43.0,41.0,30.01,SW,223,0.0,-999.0,93,-99.99,,,-99.99,,2013-02-05 12:31:00,
2013-02-05 04:41:00,43.0,41.0,30.01,SW,223,0.0,-999.0,93,-99.99,,,-99.99,,2013-02-05 12:41:00,
2013-02-05 04:52:00,42.0,40.0,30.01,SW,223,0.0,-999.0,93,-99.99,,,-99.99,,2013-02-05 12:52:00,
2013-02-05 05:01:00,42.0,40.0,30.00,SW,221,0.0,-999.0,93,-99.99,,,-99.99,,2013-02-05 13:01:00,
2013-02-05 05:11:00,42.0,40.0,30.00,SW,221,0.0,-999.0,93,-99.99,,,-99.99,,2013-02-05 13:11:00,
2013-02-05 05:21:00,42.0,40.0,30.00,SSW,213,0.0,-999.0,94,-99.99,,,-99.99,,2013-02-05 13:21:00,
2013-02-05 05:31:00,42.0,40.0,30.01,SSW,205,1.0,-999.0,94,-99.99,,,-99.99,,2013-02-05 13:31:00,
2013-02-05 05:41:00,42.0,40.0,30.01,SSW,205,1.0,-999.0,94,-99.99,,,-99.99,,2013-02-05 13:41:00,
2013-02-05 05:52:00,42.0,40.0,30.01,SSW,207,0.0,-999.0,94,-99.99,,,-99.99,,2013-02-05 13:52:00,
2013-02-05 06:01:00,42.0,41.0,30.01,SSW,207,0.0,-999.0,95,-99.99,,,-99.99,,2013-02-05 14:01:00,
2013-02-05 06:12:00,42.0,41.0,30.01,SSW,207,0.0,-999.0,95,-99.99,,,-99.99,,2013-02-05 14:12:00,
2013-02-05 06:21:00,43.0,42.0,30.02,SSW,207,0.0,-999.0,95,-99.99,,,-99.99,,2013-02-05 14:21:00,
2013-02-05 06:31:00,43.0,42.0,30.04,SSW,207,0.0,-999.0,95,-99.99,,,-99.99,,2013-02-05 14:31:00,
2013-02-05 06:41:00,43.0,42.0,30.04,SSW,207,0.0,-999.0,95,-99.99,,,-99.99,,2013-02-05 14:41:00,
2013-02-05 06:52:00,43.0,42.0,30.04,SSW,207,0.0,-999.0,95,-99.99,,,-99.99,,2013-02-05 14:52:00,
2013-02-05 07:01:00,43.0,42.0,30.04,SSW,207,0.0,-999.0,95,-99.99,,,-99.99,,2013-02-05 15:01:00,
2013-02-05 07:11:00,43.0,42.0,30.04,SSW,207,0.0,-999.0,95,-99.99,,,-99.99,,2013-02-05 15:11:00,
2013-02-05 07:21:00,44.0,43.0,30.05,SSW,207,0.0,-999.0,95,-99.99,,,-99.99,,2013-02-05 15:21:00,
2013-02-05 07:32:00,45.0,44.0,30.05,SSW,207,0.0,-999.0,96,-99.99,,,-99.99,,2013-02-05 15:32:00,
2013-02-05 07:41:00,45.0,44.0,30.05,SSW,207,0.0,-999.0,96,-99.99,,,-99.99,,2013-02-05 15:41:00,
2013-02-05 07:52:00,45.0,44.0,30.06,SSW,207,0.0,-999.0,96,-99.99,,,-99.99,,2013-02-05 15:52:00,
2013-02-05 08:01:00,46.0,45.0,30.06,SSW,207,0.0,-999.0,96,-99.99,,,-99.99,,2013-02-05 16:01:00,
2013-02-05 08:11:00,46.0,45.0,30.06,SSW,207,0.0,-999.0,96,-99.99,,,-99.99,,2013-02-05 16:11:00,
2013-02-05 08:22:00,46.0,45.0,30.07,SSW,207,0.0,-999.0,96,-99.99,,,-99.99,,2013-02-05 16:22:00,
2013-02-05 08:32:00,46.0,45.0,30.07,SSW,207,0.0,-999.0,96,-99.99,,,-99.99,,2013-02-05 16:32:00,
2013-02-05 08:41:00,46.0,45.0,30.07,SSW,207,0.0,-999.0,96,-99.99,,,-99.99,,2013-02-05 16:41:00,
2013-02-05 08:52:00,46.0,45.0,30.07,SSW,207,0.0,-999.0,96,-99.99,,,-99.99,,2013-02-05 16:52:00,
2013-02-05 09:01:00,47.0,46.0,30.08,SSW,206,0.0,-999.0,96,-99.99,,,-99.99,,2013-02-05 17:01:00,
2013-02-05 09:11:00,47.0,46.0,30.08,SSW,206,0.0,-999.0,96,-99.99,,,-99.99,,2013-02-05 17:11:00,
2013-02-05 09:21:00,47.0,46.0,30.08,SE,140,0.0,-999.0,96,-99.99,,,-99.99,,2013-02-05 17:21:00,
2013-02-05 09:32:00,47.0,46.0,30.08,SE,138,0.0,-999.0,96,-99.99,,,-99.99,,2013-02-05 17:32:00,
2013-02-05 09:41:00,47.0,46.0,30.08,SE,138,0.0,-999.0,96,-99.99,,,-99.99,,2013-02-05 17:41:00,
2013-02-05 09:52:00,47.0,46.0,30.08,SE,139,0.0,-999.0,96,-99.99,,,-99.99,,2013-02-05 17:52:00,
2013-02-05 10:01:00,47.0,46.0,30.09,SE,139,0.0,-999.0,96,-99.99,,,-99.99,,2013-02-05 18:01:00,
2013-02-05 10:11:00,47.0,46.0,30.09,SE,139,0.0,-999.0,96,-99.99,,,-99.99,,2013-02-05 18:11:00,
2013-02-05 10:21:00,47.0,46.0,30.09,SE,139,0.0,-999.0,96,-99.99,,,-99.99,,2013-02-05 18:21:00,
2013-02-05 10:31:00,48.0,47.0,30.09,SSE,157,0.0,-999.0,96,-99.99,,,-99.99,,2013-02-05 18:31:00,
2013-02-05 10:42:00,48.0,47.0,30.09,SSE,157,0.0,-999.0,96,-99.99,,,-99.99,,2013-02-05 18:42:00,
2013-02-05 10:52:00,48.0,47.0,30.09,SSE,157,0.0,-999.0,96,-99.99,,,-99.99,,2013-02-05 18:52:00,
2013-02-05 11:02:00,48.0,47.0,30.08,SSE,157,0.0,-999.0,96,-99.99,,,-99.99,,2013-02-05 19:02:00,
2013-02-05 11:11:00,48.0,47.0,30.08,SSE,157,0.0,-999.0,96,-99.99,,,-99.99,,2013-02-05 19:11:00,
2013-02-05 11:21:00,49.0,48.0,30.09,SSE,157,0.0,-999.0,96,-99.99,,,-99.99,,2013-02-05 19:21:00,
2013-02-05 11:31:00,48.0,47.0,30.08,SW,218,1.0,-999.0,96,-99.99,,,-99.99,,2013-02-05 19:31:00,
2013-02-05 11:42:00,48.0,47.0,30.08,SW,218,1.0,-999.0,96,-99.99,,,-99.99,,2013-02-05 19:42:00,
2013-02-05 11:52:00,49.0,48.0,30.08,SW,221,1.0,-999.0,96,-99.99,,,-99.99,,2013-02-05 19:52:00,
2013-02-05 12:01:00,49.0,48.0,30.08,SW,232,1.0,-999.0,96,-99.99,,,-99.99,,2013-02-05 20:01:00,
2013-02-05 12:11:00,49.0,48.0,30.08,SW,232,1.0,-999.0,96,-99.99,,,-99.99,,2013-02-05 20:11:00,
2013-02-05 12:21:00,50.0,49.0,30.07,SW,234,0.0,-999.0,96,-99.99,,,-99.99,,2013-02-05 20:21:00,
2013-02-05 12:31:00,50.0,49.0,30.06,WSW,241,0.0,-999.0,96,-99.99,,,-99.99,,2013-02-05 20:31:00,
2013-02-05 12:41:00,50.0,49.0,30.06,WSW,241,0.0,-999.0,96,-99.99,,,-99.99,,2013-02-05 20:41:00,
2013-02-05 12:52:00,50.0,49.0,30.05,WSW,242,0.0,-999.0,96,-99.99,,,-99.99,,2013-02-05 20:52:00,
2013-02-05 13:01:00,51.0,50.0,30.04,WSW,241,0.0,-999.0,96,-99.99,,,-99.99,,2013-02-05 21:01:00,
2013-02-05 13:11:00,51.0,50.0,30.04,WSW,241,0.0,-999.0,96,-99.99,,,-99.99,,2013-02-05 21:11:00,
2013-02-05 13:21:00,51.0,50.0,30.03,WSW,244,0.0,-999.0,95,-99.99,,,-99.99,,2013-02-05 21:21:00,
2013-02-05 13:31:00,52.0,50.0,30.02,WSW,244,0.0,-999.0,94,-99.99,,,-99.99,,2013-02-05 21:31:00,
2013-02-05 13:41:00,52.0,50.0,30.02,WSW,244,0.0,-999.0,94,-99.99,,,-99.99,,2013-02-05 21:41:00,
2013-02-05 13:52:00,53.0,50.0,30.01,WSW,244,0.0,-999.0,91,-99.99,,,-99.99,,2013-02-05 21:52:00,
2013-02-05 14:01:00,54.0,51.0,30.00,WSW,244,0.0,-999.0,89,-99.99,,,-99.99,,2013-02-05 22:01:00,
2013-02-05 14:11:00,54.0,51.0,30.00,WSW,244,0.0,-999.0,89,-99.99,,,-99.99,,2013-02-05 22:11:00,
2013-02-05 14:21:00,54.0,50.0,30.00,WSW,245,0.0,-999.0,87,-99.99,,,-99.99,,2013-02-05 22:21:00,
2013-02-05 14:31:00,55.0,50.0,30.00,WSW,244,0.0,-999.0,83,-99.99,,,-99.99,,2013-02-05 22:31:00,
2013-02-05 14:41:00,55.0,50.0,30.00,WSW,244,0.0,-999.0,83,-99.99,,,-99.99,,2013-02-05 22:41:00,
2013-02-05 14:52:00,55.0,50.0,30.00,WSW,244,0.0,-999.0,83,-99.99,,,-99.99,,2013-02-05 22:52:00,
2013-02-05 15:01:00,55.0,50.0,30.01,WSW,240,0.0,-999.0,83,-99.99,,,-99.99,,2013-02-05 23:01:00,
2013-02-05 15:11:00,55.0,50.0,30.01,WSW,240,0.0,-999.0,83,-99.99,,,-99.99,,2013-02-05 23:11:00,
2013-02-05 15:21:00,54.0,49.0,30.01,SW,223,0.0,-999.0,83,-99.99,,,-99.99,,2013-02-05 23:21:00,
2013-02-05 15:32:00,54.0,49.0,30.01,SW,226,0.0,-999.0,84,-99.99,,,-99.99,,2013-02-05 23:32:00,
2013-02-05 15:41:00,54.0,49.0,30.01,SW,226,0.0,-999.0,84,-99.99,,,-99.99,,2013-02-05 23:41:00,
2013-02-05 16:01:00,53.0,49.0,30.01,SW,236,0.0,-999.0,85,-99.99,,,-99.99,,2013-02-06 00:01:00,
2013-02-05 16:11:00,53.0,49.0,30.01,SW,236,0.0,-999.0,85,-99.99,,,-99.99,,2013-02-06 00:11:00,
2013-02-05 16:21:00,52.0,48.0,30.00,SW,236,0.0,-999.0,86,-99.99,,,-99.99,,2013-02-06 00:21:00,
2013-02-05 16:31:00,52.0,49.0,30.01,SW,236,0.0,-999.0,88,-99.99,,,-99.99,,2013-02-06 00:31:00,
2013-02-05 16:41:00,52.0,49.0,30.01,SW,236,0.0,-999.0,88,-99.99,,,-99.99,,2013-02-06 00:41:00,
2013-02-05 16:52:00,51.0,48.0,30.01,SW,236,0.0,-999.0,89,-99.99,,,-99.99,,2013-02-06 00:52:00,
2013-02-05 17:01:00,51.0,48.0,30.01,SW,236,0.0,-999.0,90,-99.99,,,-99.99,,2013-02-06 01:01:00,
2013-02-05 17:11:00,51.0,48.0,30.01,SW,236,0.0,-999.0,90,-99.99,,,-99.99,,2013-02-06 01:11:00,
2013-02-05 17:21:00,51.0,48.0,30.01,SW,236,0.0,-999.0,90,-99.99,,,-99.99,,2013-02-06 01:21:00,
2013-02-05 17:31:00,51.0,48.0,30.01,SW,236,0.0,-999.0,91,-99.99,,,-99.99,,2013-02-06 01:31:00,
2013-02-05 17:41:00,51.0,48.0,30.01,SW,236,0.0,-999.0,91,-99.99,,,-99.99,,2013-02-06 01:41:00,
2013-02-05 17:52:00,50.0,47.0,30.00,SW,236,0.0,-999.0,91,-99.99,,,-99.99,,2013-02-06 01:52:00,
2013-02-05 18:01:00,50.0,47.0,30.00,SW,236,0.0,-999.0,91,-99.99,,,-99.99,,2013-02-06 02:01:00,
2013-02-05 18:11:00,50.0,47.0,30.00,SW,236,0.0,-999.0,91,-99.99,,,-99.99,,2013-02-06 02:11:00,
2013-02-05 18:21:00,50.0,47.0,30.01,SW,236,0.0,-999.0,91,-99.99,,,-99.99,,2013-02-06 02:21:00,
2013-02-05 18:31:00,50.0,47.0,30.01,SW,236,0.0,-999.0,91,-99.99,,,-99.99,,2013-02-06 02:31:00,
2013-02-05 18:41:00,50.0,47.0,30.01,SW,236,0.0,-999.0,91,-99.99,,,-99.99,,2013-02-06 02:41:00,
2013-02-05 18:52:00,50.0,48.0,30.01,SW,236,0.0,-999.0,92,-99.99,,,-99.99,,2013-02-06 02:52:00,
2013-02-05 19:02:00,50.0,48.0,30.01,SW,236,0.0,-999.0,92,-99.99,,,-99.99,,2013-02-06 03:02:00,
2013-02-05 19:11:00,50.0,48.0,30.01,SW,236,0.0,-999.0,92,-99.99,,,-99.99,,2013-02-06 03:11:00,
2013-02-05 19:21:00,50.0,48.0,30.01,SW,236,0.0,-999.0,92,-99.99,,,-99.99,,2013-02-06 03:21:00,
2013-02-05 19:31:00,50.0,48.0,30.02,SW,236,0.0,-999.0,92,-99.99,,,-99.99,,2013-02-06 03:31:00,
2013-02-05 19:42:00,50.0,48.0,30.02,SW,236,0.0,-999.0,92,-99.99,,,-99.99,,2013-02-06 03:42:00,
2013-02-05 19:52:00,50.0,48.0,30.02,SW,236,0.0,-999.0,92,-99.99,,,-99.99,,2013-02-06 03:52:00,
2013-02-05 20:01:00,50.0,48.0,30.02,SW,236,0.0,-999.0,93,-99.99,,,-99.99,,2013-02-06 04:01:00,
2013-02-05 20:11:00,50.0,48.0,30.02,SW,236,0.0,-999.0,93,-99.99,,,-99.99,,2013-02-06 04:11:00,
2013-02-05 20:21:00,50.0,48.0,30.02,SW,236,0.0,-999.0,93,-99.99,,,-99.99,,2013-02-06 04:21:00,
2013-02-05 20:31:00,50.0,48.0,30.02,SW,236,0.0,-999.0,93,-99.99,,,-99.99,,2013-02-06 04:31:00,
2013-02-05 20:41:00,50.0,48.0,30.02,SW,236,0.0,-999.0,93,-99.99,,,-99.99,,2013-02-06 04:41:00,
2013-02-05 20:52:00,50.0,48.0,30.02,SW,236,0.0,-999.0,93,-99.99,,,-99.99,,2013-02-06 04:52:00,
2013-02-05 21:01:00,50.0,48.0,30.03,SW,236,0.0,-999.0,93,-99.99,,,-99.99,,2013-02-06 05:01:00,
2013-02-05 21:11:00,50.0,48.0,30.03,SW,236,0.0,-999.0,93,-99.99,,,-99.99,,2013-02-06 05:11:00,
2013-02-05 21:22:00,50.0,48.0,30.03,SW,236,0.0,-999.0,93,-99.99,,,-99.99,,2013-02-06 05:22:00,
2013-02-05 21:31:00,50.0,48.0,30.03,SW,236,0.0,-999.0,93,-99.99,,,-99.99,,2013-02-06 05:31:00,
2013-02-05 21:41:00,50.0,48.0,30.03,SW,236,0.0,-999.0,93,-99.99,,,-99.99,,2013-02-06 05:41:00,
2013-02-05 21:53:00,50.0,48.0,30.03,SW,236,0.0,-999.0,94,-99.99,,,-99.99,,2013-02-06 05:53:00,
2013-02-05 22:01:00,50.0,48.0,30.03,SW,236,0.0,-999.0,94,-99.99,,,-99.99,,2013-02-06 06:01:00,
2013-02-05 22:11:00,50.0,48.0,30.03,SW,236,0.0,-999.0,94,-99.99,,,-99.99,,2013-02-06 06:11:00,
2013-02-05 22:21:00,49.0,47.0,30.02,SW,236,0.0,-999.0,94,-99.99,,,-99.99,,2013-02-06 06:21:00,
2013-02-05 22:31:00,49.0,47.0,30.02,SW,236,0.0,-999.0,94,-99.99,,,-99.99,,2013-02-06 06:31:00,
2013-02-05 22:42:00,49.0,47.0,30.02,SW,236,0.0,-999.0,94,-99.99,,,-99.99,,2013-02-06 06:42:00,
2013-02-05 22:52:00,49.0,47.0,30.03,SW,236,0.0,-999.0,94,-99.99,,,-99.99,,2013-02-06 06:52:00,
2013-02-05 23:01:00,49.0,47.0,30.03,SW,236,0.0,-999.0,94,-99.99,,,-99.99,,2013-02-06 07:01:00,
2013-02-05 23:11:00,49.0,47.0,30.03,SW,236,0.0,-999.0,94,-99.99,,,-99.99,,2013-02-06 07:11:00,
2013-02-05 23:21:00,49.0,47.0,30.02,SW,236,0.0,-999.0,94,-99.99,,,-99.99,,2013-02-06 07:21:00,
2013-02-05 23:32:00,49.0,47.0,30.02,SW,236,0.0,-999.0,94,-99.99,,,-99.99,,2013-02-06 07:32:00,
2013-02-05 23:41:00,49.0,47.0,30.02,SW,236,0.0,-999.0,94,-99.99,,,-99.99,,2013-02-06 07:41:00,
2013-02-05 23:52:00,49.0,47.0,30.01,SW,236,0.0,-999.0,94,-99.99,,,-99.99,,2013-02-06 07:52:00,